View from above orbital plane
|
View from above satellite
|
Ground track
|
The orbit data is extracted from the following two-line orbital elements,
1 20046U 89042B 21104.37088944 .00000094 00000-0 76812-4 0 9997
2 20046 82.9387 341.8661 0043275 109.8844 250.6985 13.78221665601491
Epoch (UTC): | 14 April 2021 08:54:04 |
Eccentricity: | 0.0043275 |
inclination: | 82.9387° |
perigee height: | 938 km |
apogee height: | 1002 km |
right ascension of ascending node: | 341.8661° |
argument of perigee: | 109.8844° |
revolutions per day: | 13.78221665 |
mean anomaly at epoch: | 250.6985° |
orbit number at epoch: | 60149 |
The dashed part of the orbit path shows where the satellite is in the earth's shadow,
|
|